ECMWFNIL_sfc_temp_072.txt.gz
Temp
77 77 79 79 78 78 77 76 76 77 78 78 78 79 79 79 80 80 80 79 80 79 79 79 78 78 79 78 79 79 78 78 79 78 78 77 77 77 78 77 76 76
77 77 79 79 78 77 76 77 76 77 77 78 79 79 79 79 79 80 79 79 80 80 79 79 79 78 78 78 77 78 77 78 77 79 77 77 77 77 78 78 78 77
78 77 78 78 79 78 78 77 76 77 78 79 79 79 79 80 79 79 79 80 80 81 79 79 79 79 79 78 77 78 78 76 77 78 77 77 77 77 78 79 78 78
78 78 79 80 81 80 79 77 75 76 78 77 78 80 80 81 79 79 78 81 79 80 80 79 79 79 79 78 77 77 78 77 77 77 77 77 77 77 77 77 79 78
79 79 79 80 80 80 80 78 78 77 77 78 79 78 79 78 78 78 78 79 79 79 79 79 79 79 78 78 78 77 77 77 76 76 76 76 76 77 78 77 76 77
80 79 79 79 79 79 79 80 79 79 79 78 78 79 79 79 78 78 78 79 79 80 80 80 79 79 79 78 77 77 78 77 77 76 76 76 76 76 80 78 76 76
80 79 79 80 80 79 79 80 80 80 80 81 79 79 80 80 79 79 78 78 80 79 80 79 78 79 79 78 77 77 77 77 77 76 76 76 76 76 77 77 77 76
81 81 80 80 80 80 79 79 80 80 81 80 80 80 80 81 80 81 80 78 79 79 79 80 79 78 79 79 78 77 77 78 77 76 76 76 75 76 76 77 76 75
81 81 80 80 80 81 81 81 80 81 81 80 81 81 80 81 81 81 80 79 79 79 79 79 79 79 79 79 78 78 77 78 78 77 76 76 75 76 77 76 75 75
81 81 81 81 81 81 81 82 82 81 81 81 81 82 81 81 81 81 80 79 79 79 79 79 79 79 79 79 79 78 78 77 77 77 77 77 77 76 77 77 76 75
81 81 81 81 81 82 82 83 83 83 82 81 82 82 82 81 81 80 79 79 80 80 79 79 79 79 79 79 79 79 79 79 78 78 77 77 77 77 78 77 77 76
82 82 81 81 82 82 83 83 84 83 83 83 82 82 82 82 82 81 80 79 80 81 81 80 80 79 79 80 80 80 79 79 79 78 78 78 77 77 77 77 77 77
82 82 82 82 82 83 83 83 84 84 84 84 83 83 83 82 82 82 81 80 80 81 81 81 80 80 79 79 79 79 79 79 79 78 78 78 78 78 78 77 77 78
83 83 83 83 83 82 82 83 84 84 84 84 84 83 83 83 83 82 82 82 81 81 81 82 81 81 80 79 79 80 79 79 79 79 79 78 78 78 78 79 78 78
83 83 83 83 82 81 81 82 83 83 83 84 83 83 85 85 85 84 82 81 82 81 81 82 82 81 81 81 79 79 80 79 79 79 79 78 78 78 78 78 79 80
82 82 82 82 82 81 81 81 83 83 84 83 83 84 83 84 84 84 84 82 82 81 81 81 81 82 79 74 75 81 80 81 80 79 79 79 78 78 78 78 79 81
82 82 82 81 81 81 81 81 81 83 83 82 82 83 82 82 83 83 84 84 83 82 81 82 83 83 74 70 70 73 80 80 79 79 79 79 79 78 78 78 79 79
82 82 81 81 81 81 81 81 82 82 82 82 82 82 82 83 83 83 83 84 84 83 83 82 82 76 70 68 69 69 73 81 80 80 79 79 79 79 79 79 79 79
82 82 81 81 81 81 81 81 81 81 81 82 82 83 83 81 81 82 82 83 83 82 82 83 83 75 69 67 68 68 68 76 82 80 79 79 79 79 79 79 79 78
81 82 81 81 81 81 81 81 80 80 82 83 83 83 82 81 82 82 82 81 82 82 82 83 82 75 68 65 65 66 67 71 82 81 80 80 79 79 79 79 79 78
79 80 81 81 81 81 81 80 80 81 81 82 83 83 82 81 82 82 82 82 83 83 82 83 84 73 66 64 63 63 65 68 80 81 80 79 79 79 79 80 79 79
79 79 80 81 81 81 80 80 80 80 80 82 82 83 84 83 82 83 82 82 82 83 83 82 85 70 65 63 63 62 64 72 78 80 80 79 79 78 79 80 80 79
81 80 80 81 81 81 80 81 80 80 81 82 82 83 83 82 83 83 83 83 82 82 82 82 84 72 63 62 62 62 64 74 77 79 79 79 79 79 79 79 80 80
82 81 81 81 81 81 81 81 82 82 82 82 82 82 82 83 83 83 83 84 83 82 83 83 84 75 61 61 60 61 66 76 77 78 78 79 79 80 79 79 80 83
82 81 82 82 81 82 82 82 82 82 82 82 83 83 83 84 83 83 83 84 84 84 80 82 84 77 60 61 60 60 65 77 78 78 77 78 79 79 79 79 79 81
82 81 82 83 82 82 83 82 83 83 82 82 83 84 84 84 83 83 83 83 84 84 84 83 83 83 70 59 59 58 60 76 78 77 77 77 78 78 78 78 78 78

ECMWFNIL_sfc_temp_075.txt.gz
Temp
76 76 76 76 75 75 75 74 75 76 75 76 76 76 76 77 77 77 77 77 77 78 77 77 77 76 77 76 76 76 76 76 77 76 76 75 75 75 76 75 74 73
76 76 77 77 75 75 74 75 75 76 76 76 77 77 77 77 77 77 77 77 77 78 78 78 77 76 76 76 75 75 75 76 76 78 76 75 75 75 76 76 75 75
76 76 76 76 77 76 76 76 75 76 76 77 77 77 77 78 77 76 77 77 77 78 77 77 77 76 76 75 75 75 76 75 75 76 76 76 76 75 76 77 76 75
76 77 77 78 78 78 77 75 74 75 76 76 76 78 78 79 78 77 76 79 77 77 77 77 77 77 76 75 75 74 75 75 76 76 76 76 76 76 76 75 76 76
77 76 77 78 79 78 77 76 76 75 76 77 78 77 77 77 77 77 76 76 76 77 76 77 76 77 76 76 75 75 75 74 74 74 75 74 75 75 76 75 74 75
77 77 77 77 78 77 77 77 76 76 76 77 77 78 77 78 77 77 77 76 76 77 77 77 77 77 76 76 75 75 75 75 75 74 74 74 75 75 77 76 74 74
78 77 77 77 78 78 78 78 77 77 77 78 77 77 77 77 77 77 77 77 77 77 77 77 76 76 76 76 75 75 75 75 74 74 74 74 73 74 74 75 74 74
78 78 78 77 77 77 78 78 77 77 77 76 76 77 77 78 77 78 77 77 77 77 76 77 77 76 77 76 75 75 75 76 75 74 74 74 73 73 74 75 74 73
79 78 78 77 77 78 78 79 79 78 77 76 77 78 77 78 78 78 77 76 76 76 76 76 76 77 77 76 76 75 75 76 76 75 74 74 74 74 74 74 73 73
78 79 79 78 78 78 78 79 80 80 78 77 78 78 77 77 78 78 77 75 76 76 75 76 76 77 77 77 77 76 76 76 75 75 75 75 75 75 74 74 74 74
79 79 79 78 79 79 79 80 80 80 79 79 78 78 78 77 77 77 76 75 76 75 75 75 76 76 76 77 77 77 77 76 75 75 75 75 75 75 76 74 74 74
79 79 79 79 79 80 80 80 80 80 80 80 79 79 78 79 78 77 78 76 76 76 76 76 76 76 76 77 77 77 76 76 76 75 75 75 75 75 75 75 75 75
80 80 80 80 80 80 81 81 81 81 81 80 80 80 79 79 79 78 78 78 77 77 77 76 76 76 76 76 76 76 76 76 76 75 75 75 75 75 75 75 75 76
80 81 80 80 80 79 80 80 81 81 81 80 80 79 80 80 80 79 78 78 78 78 78 78 77 76 76 76 76 76 76 76 76 76 76 75 75 75 75 75 75 76
80 81 81 80 80 79 79 79 80 80 80 80 80 80 81 81 81 81 79 78 78 78 78 78 78 78 77 77 76 76 76 76 76 76 76 75 75 75 75 75 75 76
80 80 80 80 79 78 78 79 80 80 81 80 80 80 80 80 80 80 80 79 78 78 78 78 78 79 76 71 73 78 76 78 77 76 76 76 76 75 75 75 76 77
80 79 79 78 79 79 78 78 79 80 80 79 79 79 79 79 79 79 80 80 79 79 78 78 80 80 72 68 68 70 77 77 77 76 76 76 76 76 75 76 76 76
80 79 79 79 79 78 78 78 79 79 79 79 79 79 78 80 79 79 79 80 81 80 79 79 79 74 69 67 67 67 70 78 77 77 77 76 76 76 77 77 77 77
80 79 79 79 79 79 79 79 78 78 78 79 79 80 80 78 78 79 79 79 80 79 79 80 80 73 68 67 66 66 66 72 79 78 77 77 76 76 77 76 76 76
80 80 79 79 79 79 79 78 78 78 79 80 80 80 79 79 79 79 79 78 79 79 79 80 80 73 68 66 65 65 65 68 77 79 78 78 77 77 77 77 77 76
80 80 79 79 79 79 79 78 78 78 79 80 80 80 79 78 79 79 79 79 79 80 80 80 82 71 66 64 63 63 64 66 75 78 78 78 78 78 77 78 78 77
80 80 80 80 79 79 79 78 78 78 78 79 80 80 81 80 80 80 79 79 79 80 79 79 82 70 65 64 62 62 63 69 73 75 77 78 78 78 78 78 78 78
81 80 80 80 79 79 79 79 78 78 79 80 79 80 80 80 80 80 80 80 80 79 79 80 81 73 65 62 61 61 63 71 73 75 76 77 78 78 78 78 78 78
80 80 80 80 80 79 79 80 80 80 80 80 79 79 79 80 81 80 81 81 80 80 80 80 81 75 64 61 60 60 64 73 73 74 75 76 77 78 78 78 78 81
81 80 80 80 79 80 80 80 80 80 80 80 80 80 80 81 81 80 81 81 81 81 78 79 81 77 65 61 60 59 64 73 75 75 75 76 76 77 78 78 78 80
80 80 80 80 80 80 80 80 81 80 80 80 80 81 81 81 81 81 80 81 81 81 82 80 81 81 75 61 59 58 59 73 75 75 75 75 77 77 77 77 78 78

ECMWFNIL_sfc_temp_078.txt.gz
Temp
76 75 74 74 74 75 75 75 75 76 76 76 76 77 77 77 78 78 78 78 78 78 78 78 78 78 78 78 78 78 78 77 78 78 78 78 77 78 78 78 78 77
76 76 76 75 74 75 74 76 75 76 76 76 77 77 77 77 78 78 78 77 78 78 78 78 78 78 78 78 77 77 77 77 77 79 78 77 78 78 78 78 79 78
76 76 76 75 76 75 76 75 75 76 76 77 77 77 77 78 77 77 78 78 78 79 78 78 78 78 78 78 77 77 78 77 77 79 78 78 78 78 79 80 79 79
76 76 77 77 77 76 76 75 75 75 76 76 77 78 78 79 78 77 77 79 78 78 78 78 78 79 78 78 77 77 77 77 78 78 78 78 78 79 78 78 79 79
77 76 77 78 77 76 75 75 76 75 76 77 78 77 77 77 77 77 77 77 77 78 78 78 78 78 78 77 77 77 77 77 77 77 77 77 78 78 79 78 78 78
77 77 76 77 77 76 75 76 76 76 76 77 77 78 78 78 77 77 77 77 78 78 78 78 78 79 79 78 77 77 78 78 78 76 76 77 78 78 79 78 78 77
77 77 77 77 78 77 76 76 76 76 77 78 77 77 78 77 77 77 77 77 78 78 78 78 77 78 78 78 77 76 76 77 77 76 76 77 77 77 78 78 77 77
78 78 77 77 77 77 77 77 76 76 76 76 77 77 77 78 78 78 78 77 78 78 78 78 78 77 78 78 77 77 77 77 77 76 76 76 76 77 77 77 77 77
78 78 77 77 78 78 78 79 78 78 77 76 77 78 77 78 78 78 77 77 77 77 77 77 77 78 78 78 77 77 77 77 78 77 77 77 76 77 77 77 77 77
78 78 78 78 78 78 79 79 80 79 78 77 78 79 78 77 78 78 77 76 77 77 76 77 77 77 77 78 78 78 77 77 77 77 77 78 78 78 78 77 77 76
79 79 78 78 78 79 79 80 80 80 79 78 78 78 79 78 77 77 77 76 77 77 77 77 77 77 77 78 78 78 78 78 78 77 77 77 78 78 78 77 77 77
79 79 79 78 79 79 80 80 81 80 80 79 79 78 78 79 78 77 78 76 77 77 77 77 77 77 77 78 79 78 78 78 78 78 78 78 78 78 78 78 78 78
79 79 79 79 79 80 80 80 80 81 81 80 80 79 79 79 79 77 77 78 77 77 77 77 77 77 77 77 78 77 77 78 78 77 78 78 78 78 79 79 79 79
80 80 80 79 80 78 79 80 81 81 80 80 80 79 80 80 80 78 78 78 78 77 77 77 77 77 76 77 77 77 78 78 78 78 78 78 78 78 78 79 79 79
79 80 80 79 79 77 77 78 79 79 80 80 79 80 81 81 81 81 79 77 78 77 77 78 77 77 77 77 77 77 77 78 78 78 78 77 77 78 78 78 78 79
78 78 79 78 78 77 76 77 79 79 80 80 79 80 79 79 79 79 80 79 78 77 78 78 78 78 75 70 72 78 77 78 78 77 77 78 77 77 78 78 78 79
78 78 78 77 77 77 77 77 77 79 78 77 78 78 78 77 79 79 80 81 80 79 78 78 79 80 71 67 67 69 77 77 77 77 77 77 78 77 77 78 78 78
79 78 77 77 77 77 77 77 78 78 77 77 78 78 77 79 79 78 78 80 80 80 80 80 79 73 68 66 66 66 70 78 79 78 78 77 78 78 78 78 78 78
78 78 78 78 77 77 77 77 76 77 77 77 78 79 79 76 76 78 78 78 79 78 79 80 81 72 67 66 66 65 65 72 80 79 79 78 78 78 78 78 78 78
77 78 78 78 78 77 77 77 77 76 78 80 80 78 77 77 79 77 77 76 77 77 77 80 80 72 66 64 64 64 65 67 78 79 79 79 78 78 79 78 78 77
78 78 78 78 78 78 77 77 77 77 78 79 80 79 78 77 78 78 77 77 78 79 78 80 82 71 65 63 62 62 63 66 75 78 78 78 78 79 78 79 79 78
78 77 78 78 78 78 77 77 77 77 77 78 78 80 80 80 78 79 79 78 78 79 79 79 82 69 65 63 62 61 63 70 73 75 76 78 78 78 79 78 79 79
78 78 78 78 78 78 78 78 77 77 78 78 78 79 79 79 79 80 79 80 79 78 78 78 80 73 64 62 61 61 63 72 73 74 75 76 77 78 78 79 79 79
79 79 79 79 78 78 78 79 79 79 79 79 78 78 79 80 80 80 80 80 80 80 80 79 80 74 64 61 60 60 64 73 73 74 74 75 76 77 78 78 79 80
79 79 80 80 79 79 80 79 79 79 80 80 80 80 80 80 80 80 81 81 82 82 77 78 81 76 64 61 60 59 64 73 74 74 74 75 76 76 78 78 78 79
79 79 79 80 80 80 80 80 80 80 80 80 80 81 81 81 81 81 80 81 82 82 82 81 81 81 76 61 59 58 59 73 74 74 74 75 76 76 77 77 78 78

ECMWFNIL_sfc_temp_081.txt.gz
Temp
83 83 83 83 83 84 84 84 85 85 84 86 86 86 85 86 86 86 86 86 85 86 85 85 85 85 86 86 85 85 85 86 87 87 86 86 86 87 87 87 86 86
83 83 83 83 83 83 84 85 84 84 84 84 86 86 86 86 86 86 85 85 86 86 85 86 86 85 86 87 85 86 85 86 86 89 86 85 86 87 87 87 87 87
83 83 83 83 84 84 86 85 85 85 86 86 86 85 86 87 86 85 85 86 86 87 86 85 86 85 86 86 85 86 87 85 85 89 86 85 87 86 87 89 89 87
83 83 85 85 86 85 86 84 84 84 86 85 86 87 87 88 86 86 85 84 85 86 87 87 86 87 86 86 85 86 86 85 87 86 86 86 86 87 87 88 88 88
84 84 85 85 86 85 85 84 86 86 86 86 87 86 85 84 85 86 85 85 85 86 86 86 86 87 86 85 85 85 86 87 87 85 85 85 86 87 88 87 86 87
84 83 83 84 85 84 85 85 85 86 86 87 86 87 87 86 86 86 86 86 87 87 88 88 87 87 87 86 85 85 87 88 88 85 85 85 87 88 89 87 86 86
84 84 84 85 86 85 85 85 85 85 87 87 87 86 87 87 86 85 86 86 87 87 88 86 85 86 87 86 85 84 85 85 86 85 84 86 85 86 88 87 86 85
85 86 85 85 86 86 85 85 86 85 85 85 86 86 86 87 86 87 87 86 87 86 86 87 85 85 87 87 85 84 85 88 86 84 84 85 85 84 86 87 86 85
86 86 85 85 86 86 87 88 87 87 86 85 87 88 87 87 87 88 86 85 86 85 85 85 85 86 86 86 85 85 85 87 87 86 85 85 85 85 86 86 86 85
85 85 87 86 86 87 87 88 89 88 87 87 87 89 88 86 87 87 86 84 85 84 85 85 85 86 86 86 85 85 85 84 85 85 86 86 86 87 87 86 86 85
86 87 86 86 87 88 88 89 89 90 88 87 88 88 89 88 86 86 85 84 85 85 85 85 85 85 85 87 87 87 86 86 86 85 85 85 86 86 86 86 86 86
86 87 87 87 87 88 89 89 89 89 89 88 88 87 87 88 87 86 86 84 85 86 86 85 85 85 85 86 88 88 87 87 87 86 86 86 86 86 87 87 86 86
87 86 86 87 87 88 89 89 89 90 90 89 88 88 88 88 89 87 86 86 85 86 87 85 85 86 85 85 86 86 86 86 87 86 86 86 87 87 88 88 88 88
87 88 87 86 87 85 86 88 89 89 88 88 88 87 88 89 89 88 88 88 87 87 86 86 85 86 85 85 85 86 86 86 86 86 87 87 87 87 88 89 88 89
86 87 87 86 85 84 84 85 87 87 87 87 87 88 89 90 90 90 88 87 87 86 86 87 87 87 87 86 85 85 86 87 86 86 87 86 86 88 88 87 88 89
84 84 85 85 84 82 82 83 86 86 88 87 86 87 87 86 87 88 89 88 87 86 86 87 86 87 81 73 76 86 86 88 87 86 86 86 85 85 87 87 88 90
84 83 83 82 83 83 83 82 83 85 85 84 85 85 85 84 85 86 88 88 88 88 87 87 88 88 73 68 68 71 83 86 85 85 85 85 85 84 84 86 88 88
84 83 82 82 82 82 82 82 83 84 83 83 84 85 83 86 85 85 85 87 88 88 88 88 88 77 69 67 67 66 71 84 87 86 86 86 85 86 85 86 86 88
83 83 82 82 82 82 82 82 82 82 83 83 84 85 85 83 83 85 84 85 87 85 87 88 89 75 67 66 66 65 65 74 87 87 87 87 86 85 85 85 85 86
83 83 83 82 83 82 82 82 82 81 84 86 86 84 83 83 85 84 84 83 84 85 84 87 88 75 66 65 64 64 64 68 84 87 87 87 86 86 87 86 85 84
83 83 82 82 83 82 82 82 82 82 83 85 86 85 83 82 84 84 83 84 85 86 85 86 89 72 65 63 62 62 63 67 82 85 86 86 86 86 85 86 86 85
78 79 81 82 82 82 81 81 82 81 81 83 84 86 86 86 84 85 85 84 85 85 86 85 89 70 64 62 61 61 62 74 80 81 83 85 85 85 85 85 85 85
78 77 77 78 79 78 79 80 82 81 82 83 83 84 85 85 85 86 85 86 85 84 84 85 87 75 63 61 60 60 64 78 79 81 82 83 84 85 85 85 85 85
78 78 77 77 78 78 78 79 79 82 82 82 81 83 84 86 86 86 86 86 87 86 87 85 87 78 63 60 59 58 66 79 80 80 81 81 82 84 84 84 85 81
78 78 78 78 77 77 77 77 77 79 82 82 83 83 84 84 85 86 87 86 89 88 79 83 87 81 63 60 58 57 66 79 81 81 80 81 82 82 84 85 84 82
77 77 78 79 79 78 77 75 76 76 77 77 79 83 83 83 85 86 86 87 88 88 89 87 87 87 79 59 59 56 59 77 81 80 80 80 82 82 83 83 83 84

ECMWFNIL_sfc_temp_084.txt.gz
Temp
88 88 88 89 89 90 90 90 92 91 90 92 93 91 91 91 92 92 92 92 91 91 90 89 89 89 91 90 89 89 89 89 91 91 90 90 91 92 92 91 91 91
88 88 88 89 89 89 90 91 90 91 90 90 92 93 92 91 92 92 91 91 91 91 90 91 90 89 90 91 89 89 89 90 89 94 90 89 91 92 92 91 91 91
89 89 89 89 91 90 92 91 91 91 92 93 92 92 93 93 92 91 91 91 91 93 91 90 91 90 90 90 89 90 90 88 89 94 90 89 92 91 92 95 94 92
88 89 91 91 92 92 92 91 91 90 92 92 93 94 93 95 93 92 91 90 91 91 92 92 91 92 91 90 89 90 91 90 90 90 90 90 90 92 92 93 93 94
89 89 91 92 92 91 92 91 92 92 92 93 94 93 92 91 91 92 91 91 90 91 91 91 91 91 91 90 90 89 91 91 91 90 89 89 90 91 93 92 91 91
89 89 89 90 91 91 91 92 91 93 93 94 93 95 94 92 92 92 92 92 93 93 93 93 92 92 93 91 90 90 91 93 93 90 89 89 90 93 95 93 90 89
91 90 91 92 92 92 91 91 92 92 94 94 94 93 94 94 92 92 92 92 93 92 94 92 91 91 92 91 90 89 89 90 91 90 88 90 89 90 93 92 90 89
92 92 91 92 92 93 91 92 92 92 92 93 94 93 93 94 93 94 93 92 93 92 91 93 91 90 93 92 90 89 89 93 92 89 88 88 89 89 90 91 90 89
93 93 92 92 93 94 95 95 94 94 93 92 94 95 94 93 94 95 92 92 92 92 91 91 90 91 92 92 91 90 89 91 94 91 90 89 89 89 90 91 90 89
91 93 94 94 94 95 95 96 97 96 94 94 95 96 96 93 94 94 93 90 91 91 91 90 91 91 92 93 91 91 90 89 90 90 91 91 91 91 92 91 91 90
94 94 94 94 95 96 96 97 98 98 96 95 95 96 97 96 93 93 91 91 92 91 91 90 91 91 91 93 93 93 92 92 91 90 90 90 91 90 90 91 91 91
94 94 95 95 95 97 97 98 98 98 98 97 96 95 95 97 95 94 93 91 91 92 92 91 91 91 90 91 94 94 93 93 92 91 92 91 91 92 92 92 91 91
95 94 94 96 95 96 97 97 98 99 99 98 96 95 96 96 97 94 93 93 91 92 93 92 91 91 90 90 91 92 92 92 93 93 92 92 92 93 95 94 94 94
95 96 95 94 95 93 94 96 97 97 97 97 96 95 96 97 97 96 95 94 93 93 92 92 91 91 90 90 90 92 92 92 92 93 93 93 93 94 95 96 95 96
93 95 95 94 92 91 91 93 95 95 95 95 95 95 98 97 98 98 96 94 94 93 93 94 94 93 93 92 91 91 92 93 92 92 93 92 93 95 95 94 95 97
91 91 92 92 91 89 89 90 93 94 96 95 94 94 94 94 94 95 97 96 94 93 94 95 94 95 88 79 82 91 92 94 93 92 91 92 91 91 94 95 96 97
89 89 89 89 89 89 89 89 90 92 92 91 92 92 91 91 92 93 95 97 96 95 94 95 97 96 78 71 72 74 89 91 91 91 91 90 92 90 89 92 95 96
90 88 87 87 87 87 87 88 89 90 90 90 91 92 90 92 92 91 91 94 96 96 96 96 96 84 71 69 70 69 75 90 93 92 93 92 91 91 91 92 92 95
88 88 86 86 86 87 87 87 87 87 89 90 91 91 92 89 89 91 90 91 93 92 94 96 96 81 69 67 68 68 68 78 93 93 93 94 92 91 91 90 91 92
87 87 87 86 87 87 86 86 86 86 88 91 91 90 89 89 91 89 90 89 90 90 90 94 94 82 68 65 65 65 66 71 90 92 93 93 92 93 93 91 90 90
86 86 85 86 86 86 86 86 86 86 87 88 90 90 88 87 89 89 89 89 91 91 91 93 96 77 68 63 63 63 64 69 87 89 90 91 91 91 90 91 91 91
85 86 86 86 86 86 85 85 85 85 85 87 88 91 91 92 91 91 90 90 90 91 91 91 95 73 67 63 61 62 63 78 84 85 87 89 90 90 91 90 90 90
82 83 84 83 85 85 85 85 85 85 86 87 87 88 89 90 90 92 90 91 91 90 90 90 93 79 65 62 60 60 65 82 84 85 85 86 87 89 89 90 90 90
82 82 83 84 85 84 85 86 87 87 87 87 86 86 87 90 91 91 91 92 92 91 93 91 92 82 64 61 59 59 69 84 84 85 85 85 86 87 89 89 89 83
79 82 83 83 83 84 85 85 85 86 87 87 87 87 87 88 89 89 90 87 89 90 83 89 93 86 65 61 59 58 68 83 85 86 84 85 87 87 88 89 88 86
77 78 80 83 83 84 84 84 85 85 86 86 87 88 88 88 86 86 86 87 88 87 89 91 92 92 83 59 59 57 60 81 85 85 84 84 86 86 88 88 88 89

ECMWFNIL_sfc_temp_087.txt.gz
Temp
90 90 90 90 90 91 91 91 92 91 90 92 92 92 92 92 93 93 93 92 92 92 91 90 90 90 91 90 89 90 89 88 88 89 90 90 91 92 93 93 92 92
90 90 89 91 90 91 91 93 92 92 91 91 92 93 93 93 94 93 92 92 92 92 92 91 91 90 90 89 86 89 89 88 88 93 90 90 89 91 92 92 93 93
91 90 91 91 92 92 94 93 92 92 93 94 94 93 95 95 94 92 92 92 92 94 92 92 91 90 89 88 89 87 88 87 89 91 87 88 91 92 92 95 94 94
90 91 92 93 94 93 94 93 93 92 94 94 94 95 95 97 93 93 92 91 92 92 93 92 92 92 91 91 90 90 88 86 90 90 88 87 88 92 92 91 93 95
91 91 93 93 94 93 93 93 94 94 94 94 96 94 93 92 92 93 92 92 91 92 92 92 92 92 92 91 91 90 90 90 89 89 86 86 86 90 93 93 91 91
92 91 91 93 93 93 94 94 94 95 94 96 95 96 95 94 94 94 93 93 94 94 94 94 93 93 93 92 91 90 92 93 91 88 87 85 89 91 91 93 91 90
93 92 93 94 95 94 94 93 94 94 96 96 95 95 95 95 93 93 93 93 94 93 94 93 92 92 93 92 90 90 90 91 91 88 89 90 90 89 89 90 91 90
94 95 94 94 95 95 94 95 95 94 94 95 96 95 95 96 94 95 94 94 94 93 93 94 92 91 94 93 91 90 91 95 93 90 89 89 90 89 90 92 91 90
95 95 94 95 95 96 97 97 97 96 95 95 96 98 96 96 96 96 93 93 93 92 91 93 92 92 93 93 92 91 90 92 95 92 90 90 90 89 91 91 91 90
95 95 96 96 97 97 97 98 99 98 96 96 97 99 98 95 96 96 94 92 93 92 92 92 92 93 93 93 92 92 91 90 91 92 92 92 92 92 92 91 91 90
96 97 97 96 97 98 98 99 99 100 98 97 98 98 99 97 94 95 94 93 94 93 92 92 92 92 92 93 94 93 92 92 91 91 91 91 92 91 92 91 91 91
96 97 97 97 97 98 99 100 100 100 100 98 98 97 97 99 97 96 95 93 93 93 93 92 92 92 91 92 95 95 93 93 93 92 92 92 92 93 93 92 92 91
98 97 97 98 97 98 99 99 100 101 101 100 98 98 98 99 100 96 95 95 93 94 94 93 92 93 91 91 92 93 93 93 94 93 93 93 93 94 95 94 94 94
97 98 98 96 97 95 97 99 100 100 99 99 99 97 98 99 100 99 98 96 95 95 94 94 93 93 92 91 91 92 93 94 93 93 94 94 94 94 95 96 96 96
92 96 95 96 95 94 94 96 98 98 98 98 97 98 100 99 100 101 99 96 96 95 94 95 96 95 95 93 92 92 93 94 94 93 93 93 94 96 95 95 96 98
93 93 95 94 94 92 92 94 96 97 98 97 97 97 96 96 96 97 99 98 96 95 95 97 96 98 89 82 84 92 92 95 94 92 92 92 92 92 95 96 97 98
91 92 92 92 92 91 92 92 94 95 95 93 94 95 94 93 95 96 98 99 99 97 96 97 99 99 81 73 75 78 91 92 92 92 92 92 93 91 91 93 96 97
89 90 89 90 91 90 90 91 93 93 92 93 94 95 93 96 95 94 94 97 98 99 98 98 98 88 73 72 73 72 78 92 94 94 94 93 93 92 92 93 93 96
87 87 88 87 88 90 90 88 89 91 92 93 94 94 95 91 91 94 93 94 96 94 97 98 99 84 70 70 71 71 71 82 95 95 95 95 94 92 92 91 92 93
79 83 85 85 86 88 89 88 88 89 92 95 95 93 91 92 93 92 92 91 92 93 92 96 96 84 68 68 68 68 70 75 93 94 95 95 93 94 95 93 92 91
77 77 80 83 81 77 81 85 86 87 89 93 95 94 91 90 92 91 91 91 93 94 93 95 98 79 66 65 65 66 67 72 90 92 92 93 93 93 92 94 93 93
76 76 77 79 79 77 77 76 80 83 84 89 92 95 94 94 92 93 92 92 92 93 93 92 96 77 66 63 63 64 66 80 87 88 89 90 91 92 92 91 92 92
75 76 76 76 77 76 77 76 77 78 80 83 87 92 93 93 92 93 92 93 93 92 91 92 95 80 64 61 61 61 67 84 86 88 87 88 89 90 90 91 92 92
75 75 76 77 76 75 75 76 77 78 79 81 80 87 92 94 94 93 94 94 94 93 94 92 94 83 63 61 59 59 70 85 86 86 87 87 87 88 89 89 90 85
75 76 76 76 76 77 76 75 75 76 78 77 77 83 89 91 92 92 94 94 97 96 87 91 94 86 63 62 59 58 69 85 87 87 86 86 88 87 89 90 89 87
76 76 77 77 77 77 77 76 76 77 78 78 79 79 81 86 91 92 92 92 95 95 97 95 94 94 81 59 60 58 61 83 87 86 85 86 87 87 88 88 89 89

ECMWFNIL_sfc_temp_090.txt.gz
Temp
87 87 86 86 86 87 86 87 88 88 86 88 87 87 87 87 89 89 89 88 88 87 86 86 86 86 87 86 84 83 82 82 83 84 85 86 86 88 88 89 89 86
87 87 86 87 86 86 86 88 87 87 86 87 88 87 88 88 90 90 89 88 88 88 87 88 86 86 86 86 85 84 82 81 82 88 85 87 85 87 88 88 89 88
87 87 88 88 89 88 91 90 88 88 89 90 90 89 90 90 90 88 88 89 88 90 87 87 87 86 87 86 85 85 84 82 83 87 84 85 85 84 86 88 89 90
87 87 89 90 90 89 91 89 89 88 90 89 90 92 92 93 90 89 88 89 88 88 88 89 88 88 87 86 84 83 85 84 85 86 84 85 84 85 86 86 84 85
88 88 89 90 90 89 89 90 91 90 91 90 92 90 89 88 88 90 88 88 87 89 88 88 88 88 87 86 84 82 84 85 86 86 85 84 85 85 87 85 85 86
88 88 88 89 89 89 90 90 90 91 91 93 91 92 91 91 90 90 89 89 90 91 91 90 89 90 89 87 86 84 86 86 87 85 85 84 86 87 89 85 84 85
90 89 90 91 92 91 90 90 90 90 92 93 91 91 91 91 90 89 89 89 90 89 91 88 87 87 88 87 86 85 86 86 86 85 84 85 84 85 88 85 82 83
91 91 91 91 92 92 91 91 91 91 91 91 93 91 92 93 90 92 91 90 91 89 88 90 87 86 90 89 86 86 87 91 88 84 84 84 84 84 85 87 84 83
91 91 91 91 92 93 93 94 93 93 92 92 93 94 92 92 92 92 89 89 89 88 87 89 87 89 89 89 87 86 86 89 90 86 85 85 86 86 86 86 85 84
86 92 92 92 92 93 93 94 95 94 93 93 94 95 94 92 92 92 90 87 89 88 88 88 88 89 89 89 88 88 87 86 87 87 87 87 87 87 87 87 87 85
77 84 92 92 93 94 95 95 95 95 94 94 94 94 95 93 91 91 88 88 90 89 88 88 89 89 88 90 90 89 88 89 87 87 87 87 87 87 88 86 86 87
78 79 85 93 93 94 95 96 96 96 95 94 95 94 94 95 92 93 91 88 88 89 89 88 87 88 87 88 91 91 89 90 89 88 88 88 88 89 88 88 88 87
78 79 81 90 92 95 96 96 96 97 96 95 95 94 94 95 95 92 91 91 89 90 90 88 88 89 87 87 88 89 89 88 90 89 88 88 89 89 91 90 90 89
81 82 82 83 92 91 93 96 97 97 96 95 94 94 95 96 96 94 93 93 91 91 90 89 88 89 88 87 88 89 90 89 89 89 90 89 89 89 91 91 91 91
77 78 78 77 79 88 90 92 95 95 94 94 93 94 97 96 97 97 93 92 92 90 90 91 92 91 91 89 88 88 89 90 89 89 89 88 88 91 90 90 92 93
78 78 76 76 76 76 83 89 94 95 97 95 93 94 92 91 92 93 95 93 92 91 91 93 92 93 86 81 83 88 88 91 90 88 88 87 86 87 90 91 93 94
76 77 76 76 76 76 76 77 84 92 93 90 91 92 90 88 91 92 95 96 94 93 92 93 94 94 80 73 75 79 88 87 87 86 87 87 88 85 85 89 91 91
77 77 77 77 77 77 77 76 76 75 80 88 92 93 90 93 93 91 90 94 96 95 94 93 93 85 73 71 72 73 79 88 89 89 89 88 88 88 88 88 88 91
78 77 77 77 77 78 76 76 77 77 76 76 80 89 93 89 88 91 90 91 93 90 93 94 94 83 71 70 71 71 72 82 91 89 90 90 88 87 87 86 86 87
77 77 77 77 77 75 75 75 75 76 75 77 78 77 78 82 91 90 89 87 89 89 88 93 93 84 69 67 69 69 70 76 89 90 90 89 88 89 90 88 86 85
76 76 76 77 77 76 75 75 75 75 76 76 76 78 78 78 77 82 88 89 91 92 91 93 97 79 68 66 66 66 68 73 87 90 89 88 87 87 87 88 87 88
75 75 75 75 77 76 75 75 76 76 76 77 76 77 79 77 77 78 80 84 88 91 91 91 94 77 65 65 64 65 67 76 84 85 86 87 86 86 86 85 86 86
75 75 75 75 75 76 76 76 76 76 76 77 77 77 75 76 77 79 77 76 78 79 84 89 91 82 66 61 62 63 67 78 83 85 84 85 86 86 85 85 86 86
75 76 75 75 75 74 75 75 76 76 76 77 76 76 76 76 75 76 77 77 76 76 80 81 87 84 66 60 60 61 68 79 81 83 84 84 84 85 85 85 86 86
75 75 75 74 74 74 74 74 75 75 76 76 76 76 76 77 77 75 75 76 77 78 77 78 81 83 68 59 59 59 66 80 82 82 82 83 84 84 85 86 85 85
76 75 75 74 74 75 75 74 75 74 74 74 75 76 75 75 76 76 76 76 78 78 80 81 81 85 81 59 59 57 61 79 82 82 82 83 84 83 84 84 85 85

ECMWFNIL_sfc_temp_093.txt.gz
Temp
80 81 80 79 80 81 80 80 80 81 80 81 80 81 80 82 83 81 84 82 82 81 80 80 80 80 82 79 79 79 79 79 79 78 79 79 79 81 83 81 81 80
80 81 81 81 80 81 80 81 80 80 80 80 81 81 81 83 83 83 83 82 82 82 81 81 80 80 80 80 78 78 78 77 77 82 79 80 79 80 82 81 81 80
80 80 81 80 81 81 83 82 82 80 81 82 83 82 83 84 83 83 83 83 82 83 81 81 80 80 80 79 78 79 78 77 77 80 79 79 79 79 79 82 81 83
79 80 82 83 82 82 82 81 81 81 83 82 83 85 86 88 83 83 82 84 81 82 82 82 81 81 80 80 79 78 78 77 78 79 78 79 80 79 80 80 80 79
81 80 82 82 83 82 82 81 82 82 82 83 84 83 83 82 83 83 82 82 82 81 82 82 81 82 81 80 79 78 78 78 79 79 78 78 79 79 80 80 79 80
81 80 80 82 82 82 83 82 82 83 83 84 84 84 84 83 84 84 83 83 83 83 83 83 82 82 82 80 79 78 79 80 80 79 78 78 79 80 83 80 79 78
83 81 82 83 84 82 83 83 82 82 84 83 84 84 85 83 83 84 83 83 84 82 84 82 81 81 82 80 79 78 78 79 79 79 78 78 78 78 81 79 77 78
84 84 84 83 84 83 83 84 83 82 83 84 84 84 85 85 84 85 84 84 84 83 81 82 81 80 83 81 80 79 79 83 81 79 78 78 78 78 78 80 78 77
83 85 84 84 85 85 84 86 85 84 83 85 84 85 85 86 85 85 83 83 84 82 82 81 81 82 82 81 81 80 80 82 83 80 79 79 79 78 79 78 78 77
78 80 85 86 85 86 86 87 87 87 85 85 86 86 85 84 85 86 83 82 83 82 82 82 81 82 82 82 81 81 81 80 79 80 80 80 80 80 80 80 79 78
79 82 81 84 86 87 87 88 88 88 87 86 86 87 87 85 83 85 83 81 84 83 82 83 82 82 82 83 82 82 82 83 82 79 80 80 81 81 82 80 80 80
75 76 79 80 80 82 85 87 89 88 87 88 87 87 85 87 85 84 85 82 82 83 82 82 82 81 81 83 84 83 82 83 83 82 81 81 82 81 82 81 81 80
74 74 75 78 78 77 77 78 79 83 88 88 88 88 87 86 88 85 83 84 83 83 83 82 82 82 80 81 83 83 82 81 83 82 82 81 81 82 83 83 82 82
75 75 76 76 76 76 77 77 78 78 79 83 87 88 89 89 88 88 85 85 85 84 84 83 81 82 80 80 82 82 82 82 82 82 82 82 82 82 83 83 83 83
75 75 75 76 75 74 74 74 76 78 79 79 81 87 90 90 90 89 88 85 85 84 84 85 84 84 84 83 82 82 83 82 82 83 82 82 82 83 83 83 84 86
75 76 75 75 74 74 73 74 76 78 82 80 78 80 85 88 89 87 88 87 85 84 85 86 86 86 83 79 79 84 83 85 83 82 82 82 81 81 82 83 85 87
75 75 74 74 75 74 74 74 75 78 79 79 79 79 78 80 86 88 87 88 88 86 85 87 88 89 78 72 73 76 83 83 83 80 80 81 81 80 80 82 84 84
75 75 75 74 75 75 75 75 75 76 77 79 81 82 80 80 82 85 86 87 88 88 87 87 87 82 73 70 71 71 76 83 83 83 82 80 81 81 81 81 81 83
75 75 75 75 74 75 75 75 74 75 76 78 81 81 81 77 76 79 81 85 86 85 87 87 87 78 72 69 69 70 70 78 85 84 83 82 81 81 81 80 80 80
74 75 74 74 75 74 74 74 74 74 75 76 77 78 77 76 78 77 78 76 78 81 82 86 86 79 71 69 67 67 69 72 84 84 84 84 82 82 83 82 80 80
73 73 73 74 75 74 74 73 74 74 75 75 75 75 76 76 77 78 77 78 79 80 80 82 87 77 69 67 65 65 67 70 83 85 84 83 83 82 81 82 81 81
73 73 73 74 74 74 74 74 74 74 74 75 75 75 75 75 75 76 77 78 78 78 78 79 83 74 69 65 65 63 65 73 80 82 83 83 82 82 82 81 81 82
72 73 73 73 73 73 73 74 74 74 74 75 74 74 74 74 74 76 75 76 76 77 77 77 79 73 68 63 60 62 63 73 77 80 81 82 82 81 80 80 80 80
73 73 72 73 73 73 72 72 73 74 74 75 74 73 74 74 75 74 75 75 75 75 77 77 78 76 65 62 61 57 63 73 75 77 79 80 81 81 79 78 80 83
72 72 72 72 72 73 73 72 73 73 74 73 73 74 74 74 75 74 74 74 75 76 77 76 77 75 67 63 62 60 62 70 74 76 76 79 80 80 80 80 79 81
71 71 72 72 71 71 72 72 73 73 72 73 73 73 73 74 74 74 74 75 75 75 77 77 77 77 76 62 56 55 56 66 71 72 73 74 76 78 79 80 80 80

ECMWFNIL_sfc_temp_096.txt.gz
Temp
77 77 78 77 77 78 78 77 78 78 78 78 78 78 78 79 80 80 80 80 79 79 79 78 78 78 79 77 77 77 78 76 76 75 76 76 76 77 79 79 78 77
77 78 79 78 77 78 78 79 78 78 78 77 78 78 79 79 80 80 80 80 80 80 79 79 78 78 78 77 76 76 76 76 76 80 76 76 76 76 78 78 77 77
77 77 78 78 78 78 80 79 78 78 79 79 79 79 80 81 81 79 80 80 80 80 79 79 78 78 78 77 76 77 77 75 75 76 77 76 76 77 78 79 77 78
77 78 79 79 79 79 80 79 78 78 79 79 79 81 82 84 81 80 79 81 79 79 79 79 79 79 78 78 77 76 76 76 76 76 76 76 77 77 77 76 77 77
78 78 79 79 79 79 79 79 80 79 79 80 81 80 80 80 80 80 80 80 79 79 79 79 79 79 78 78 77 76 76 76 76 75 75 75 76 77 78 77 76 76
78 78 77 79 79 78 79 79 80 80 80 80 80 81 81 81 80 81 80 80 80 80 80 79 79 79 79 78 77 77 77 77 77 76 76 75 77 77 79 78 76 76
79 78 78 79 79 79 79 79 79 80 81 81 80 80 81 81 80 80 81 81 81 80 80 79 78 79 79 78 77 76 76 77 76 76 76 76 76 76 77 77 76 76
81 80 79 78 80 79 79 79 79 79 80 81 81 81 81 82 81 82 81 82 82 80 80 80 79 78 79 78 77 76 76 79 78 76 76 76 75 76 76 77 76 75
82 81 80 79 80 80 80 81 81 80 80 81 82 83 82 82 81 82 81 80 81 80 79 79 79 79 79 78 78 77 77 78 79 77 76 76 76 76 76 76 75 75
78 80 81 81 81 82 81 82 83 83 81 81 82 83 83 81 81 82 81 79 80 80 79 79 78 79 79 79 79 78 77 77 77 77 77 77 77 77 77 76 76 75
77 76 78 80 82 83 83 83 83 84 83 82 83 83 83 83 80 80 80 79 81 80 80 79 79 79 79 79 79 79 79 79 78 77 77 77 78 78 79 77 76 76
74 74 73 74 75 76 79 83 84 84 84 83 83 83 82 83 82 81 81 80 80 81 80 80 80 79 79 79 80 80 79 79 79 78 78 78 78 78 78 78 78 77
74 73 73 75 74 74 75 75 77 80 83 84 84 84 83 82 83 82 81 81 80 81 81 80 80 79 78 79 80 79 79 79 79 79 78 78 78 79 79 79 79 79
74 74 74 73 73 73 74 76 77 76 76 76 79 81 83 84 84 83 82 82 81 81 81 81 80 80 78 78 79 80 79 79 79 79 79 78 78 79 79 80 80 80
73 74 74 74 74 73 72 73 75 77 77 77 76 79 83 84 85 85 83 82 83 82 81 81 81 81 81 79 79 79 80 79 78 78 79 78 78 79 79 79 80 81
73 74 73 73 73 73 73 73 74 75 78 78 78 78 77 78 79 81 84 83 82 82 81 82 82 83 80 76 77 80 79 81 80 78 78 78 78 78 78 79 80 81
73 73 73 73 73 73 74 74 75 76 76 77 77 78 77 76 77 80 82 84 83 83 82 83 84 85 76 70 71 74 81 79 79 78 77 77 78 77 77 79 80 80
73 74 73 73 73 73 74 74 74 75 76 77 78 78 78 78 78 78 78 81 83 83 83 83 83 79 72 69 70 69 75 81 80 80 79 77 77 77 78 78 78 80
73 74 73 73 73 74 73 73 73 74 74 75 76 77 77 76 75 75 75 77 80 80 82 83 83 76 70 69 68 68 68 76 82 81 81 80 78 77 77 77 77 77
72 73 73 73 74 74 73 73 73 73 73 74 75 75 74 74 76 76 75 73 75 77 79 82 82 77 69 67 67 67 67 70 81 82 81 81 80 80 80 78 77 77
71 72 73 73 74 73 72 72 72 73 73 73 73 73 73 73 74 74 74 74 76 76 76 76 83 75 68 64 63 64 65 67 78 81 81 81 80 80 80 80 79 78
71 71 72 73 73 73 73 73 73 72 72 73 74 73 73 73 73 73 73 73 74 74 75 74 77 63 64 63 62 62 64 69 71 73 76 78 79 79 80 79 80 79
71 71 71 71 71 71 71 72 72 72 73 73 73 72 73 72 73 73 73 73 73 73 73 73 76 65 61 59 58 60 63 69 70 73 73 75 76 77 77 78 79 79
70 71 70 70 70 70 70 70 71 72 72 74 73 73 72 72 73 73 73 73 73 73 74 73 75 67 61 59 58 59 66 69 69 70 71 73 75 76 76 76 77 81
70 70 70 70 70 70 70 70 70 71 72 73 72 72 72 73 74 73 73 73 74 74 76 74 74 69 58 57 57 56 65 70 70 70 70 72 73 74 76 77 76 79
69 69 70 69 69 70 69 69 71 71 70 71 71 72 72 73 73 73 73 73 74 74 75 75 74 74 64 55 55 55 60 69 70 70 71 72 73 74 74 76 77 78

ECMWFNIL_sfc_temp_099.txt.gz
Temp
76 76 76 76 76 77 76 75 75 76 76 76 76 76 76 77 77 77 78 77 77 77 76 76 76 76 78 76 76 76 76 75 75 74 74 74 74 74 76 76 76 75
76 76 77 77 76 77 76 77 76 76 76 76 76 76 77 77 77 78 77 77 77 77 76 77 77 76 76 76 75 76 75 75 75 77 74 74 74 74 75 75 75 75
76 76 76 76 76 76 77 77 77 77 77 77 77 77 77 78 78 77 77 78 77 78 77 77 77 76 76 76 75 76 76 74 75 75 75 74 74 74 74 76 75 76
76 77 77 77 77 77 77 76 76 76 77 76 77 78 79 80 78 77 77 79 77 77 77 77 77 77 76 76 75 75 75 75 75 74 74 75 75 75 74 75 75 75
77 76 77 77 77 77 77 77 77 76 77 77 78 77 78 77 78 78 77 77 77 77 77 77 77 77 77 76 76 75 75 75 74 73 74 74 74 75 75 75 74 75
77 77 77 77 77 77 77 77 77 77 77 77 77 78 78 78 78 78 78 78 78 78 78 77 77 77 77 76 76 76 76 76 75 74 74 74 74 74 77 76 75 74
77 76 76 77 77 77 77 77 77 78 78 78 77 77 78 78 77 78 78 78 79 78 78 77 77 77 77 76 76 75 75 75 74 74 74 74 74 74 75 75 74 74
78 77 77 76 77 76 77 77 77 77 78 77 78 78 78 79 78 79 78 78 79 78 78 78 77 77 77 76 76 75 75 76 76 74 74 74 73 73 74 75 74 73
79 78 77 76 77 77 77 78 78 78 78 78 78 79 78 79 79 79 78 78 78 78 77 77 77 77 77 76 76 76 75 76 76 75 74 74 74 74 74 74 74 74
77 77 78 77 77 78 78 78 79 79 78 78 79 79 79 78 78 79 78 77 78 77 77 77 77 77 77 77 76 76 76 75 75 75 75 75 75 75 75 75 75 74
77 78 78 78 78 79 79 79 80 80 79 79 79 79 79 79 78 78 77 77 78 78 77 77 77 77 76 77 77 77 77 76 76 75 75 75 75 76 77 75 75 75
75 76 76 77 79 79 80 80 81 80 80 79 79 79 79 80 79 78 78 77 77 78 78 78 77 77 77 77 77 77 77 77 77 76 76 76 75 76 76 76 76 75
74 74 74 76 77 78 79 79 79 80 81 81 80 80 80 80 80 78 78 78 78 78 78 78 78 77 77 76 77 77 77 76 76 76 76 76 76 76 76 76 76 76
73 74 73 74 75 74 75 76 77 77 78 79 79 80 81 81 81 80 79 78 78 78 79 79 78 78 77 76 77 77 77 76 76 76 76 76 76 76 76 77 76 77
71 71 71 72 73 72 72 73 74 74 74 74 76 79 82 81 82 81 79 78 78 78 78 79 79 79 79 78 77 76 77 77 77 77 77 76 76 76 76 76 76 77
72 72 72 72 71 71 72 72 73 73 75 73 73 74 76 78 79 79 80 79 78 78 78 79 79 80 79 74 76 79 77 78 78 77 77 76 76 75 76 76 77 77
72 72 72 71 71 71 71 71 73 74 73 73 73 74 73 73 75 78 79 80 79 79 78 79 81 82 75 69 69 72 79 77 77 76 76 76 76 75 75 76 76 76
72 72 72 72 72 72 72 71 71 72 74 73 74 75 74 75 75 75 76 78 80 79 79 80 80 77 71 68 68 68 72 79 78 78 77 76 76 76 76 76 76 76
72 72 72 72 72 72 72 71 71 72 72 72 74 75 75 74 75 75 75 74 76 76 78 80 80 74 69 67 67 67 67 73 79 78 78 77 76 76 76 75 75 75
71 72 72 72 72 72 72 72 72 71 71 72 73 72 72 73 74 74 74 73 73 73 74 76 77 75 68 66 65 65 66 68 77 79 78 78 77 77 77 76 76 75
70 70 71 72 73 73 73 72 71 71 71 71 72 72 72 72 72 73 73 73 74 73 72 73 78 69 66 64 63 63 65 66 73 76 77 77 77 77 77 77 77 77
69 70 70 70 70 70 70 70 70 71 70 71 72 72 72 72 72 72 72 72 72 72 74 73 75 62 66 64 62 62 63 69 70 72 74 76 76 76 77 76 77 76
69 69 70 70 69 69 70 70 70 71 71 72 71 71 72 72 71 72 72 72 72 73 73 73 74 64 60 62 60 59 63 69 70 71 72 73 75 76 76 76 76 77
68 68 68 69 69 69 68 69 69 70 71 73 71 70 71 71 72 72 72 72 72 72 73 73 74 68 58 58 58 57 65 69 70 70 71 72 73 75 75 75 76 79
67 68 68 68 68 68 68 68 68 69 70 71 72 72 71 71 72 72 73 72 73 73 74 73 73 71 58 55 55 56 65 70 69 69 70 71 72 73 74 74 75 78
66 67 68 68 67 67 68 68 69 69 69 70 71 71 71 72 72 72 72 73 73 73 74 73 73 73 69 56 54 54 59 71 70 69 70 71 71 72 72 72 73 74

ECMWFNIL_sfc_temp_102.txt.gz
Temp
76 76 76 76 76 76 76 76 76 77 76 77 77 77 77 78 78 79 79 79 79 79 78 78 79 79 79 78 78 78 78 78 79 77 77 78 78 78 79 79 78 78
76 76 77 77 76 77 76 77 76 77 76 76 77 77 77 78 79 79 79 79 79 79 79 79 79 79 79 79 78 78 78 78 78 79 77 77 78 78 79 79 79 78
76 76 77 76 77 77 78 77 77 77 77 78 78 78 78 79 79 78 79 79 79 80 79 78 79 79 78 78 78 79 79 77 78 79 78 78 78 78 79 80 80 79
76 77 77 78 78 77 78 77 77 77 78 77 78 79 79 80 79 79 78 80 79 79 79 79 79 79 79 79 78 78 78 78 79 78 78 78 77 78 79 78 79 79
77 76 77 78 78 78 77 77 78 77 78 78 79 78 78 78 78 79 78 78 78 79 79 79 79 79 78 78 78 78 78 78 77 77 77 77 77 78 79 78 78 79
77 77 77 77 77 77 77 77 78 78 78 78 78 79 79 79 79 79 79 79 79 79 79 79 79 79 79 78 78 78 78 78 78 77 77 77 78 78 79 79 78 78
77 76 77 77 78 78 78 77 78 78 79 80 79 78 79 79 78 79 79 79 79 79 80 79 78 78 79 78 78 77 77 77 77 77 77 77 77 77 78 78 78 78
78 77 77 77 78 77 78 78 78 78 78 78 79 79 79 80 79 80 80 79 80 79 79 80 79 78 79 79 78 77 78 79 78 77 77 77 77 77 77 78 78 77
78 78 77 77 78 78 79 79 79 79 79 79 79 80 79 80 80 80 79 79 79 79 78 79 79 79 79 79 78 78 78 78 79 78 77 77 77 77 78 78 77 77
77 77 78 77 78 78 78 79 80 79 79 79 80 80 79 79 79 80 79 78 79 79 78 79 79 79 79 79 78 78 78 78 78 78 78 78 78 78 78 77 78 77
77 78 77 77 78 79 79 80 80 80 79 79 80 80 80 80 79 79 78 78 79 79 79 78 79 79 78 79 79 79 79 79 79 78 78 78 78 78 78 78 77 78
76 76 76 77 78 79 80 80 80 80 80 80 80 80 79 80 80 79 79 78 78 79 79 79 79 79 79 79 80 80 79 79 79 79 78 78 78 78 78 78 78 78
75 75 75 77 77 78 79 79 79 80 80 80 80 80 80 80 81 79 79 79 79 79 80 79 79 79 78 78 79 79 79 79 79 79 79 78 79 79 79 79 79 79
74 74 74 74 75 74 76 77 79 79 79 79 80 79 80 81 81 81 80 80 79 79 79 80 79 79 79 78 79 79 79 79 79 79 79 79 79 79 80 80 80 80
72 73 72 72 73 72 73 74 75 76 77 77 78 80 81 81 82 82 80 79 80 79 79 80 80 80 80 79 79 78 79 79 79 79 79 79 79 80 79 79 80 80
71 72 72 72 72 71 72 72 73 74 75 75 76 77 78 78 79 79 81 81 80 79 79 80 80 81 78 73 75 80 79 80 79 79 78 78 78 78 79 79 80 81
71 72 72 71 71 72 72 72 72 73 73 73 74 75 74 75 77 78 80 81 81 81 80 80 81 82 74 69 68 71 79 79 79 78 78 78 78 78 78 79 80 80
71 72 72 71 71 72 72 72 72 72 71 72 73 74 75 76 75 75 76 78 80 81 81 81 81 76 69 67 67 67 71 79 80 80 79 79 79 79 79 79 79 80
72 72 71 71 71 72 72 72 71 71 72 72 72 73 74 74 74 75 76 77 77 77 79 80 81 74 68 66 66 66 66 72 80 80 80 80 79 78 78 78 78 78
70 71 71 71 72 72 71 71 71 71 72 72 73 72 73 73 74 74 75 75 76 76 76 78 79 75 68 65 64 64 65 67 77 80 80 80 79 79 79 79 78 78
70 69 68 69 70 71 71 71 71 72 72 72 72 72 72 73 74 74 75 75 76 77 76 77 80 72 67 64 62 61 63 66 75 77 79 79 79 79 79 79 79 79
68 69 68 67 68 69 69 69 70 71 71 71 72 73 73 73 73 73 74 75 75 76 76 77 80 67 61 62 61 61 62 70 73 74 75 77 78 79 79 78 79 79
67 67 68 68 68 67 67 68 68 69 71 72 71 72 72 72 73 73 74 74 74 75 74 75 77 70 61 61 61 59 63 71 72 73 74 75 76 78 78 79 79 79
66 66 67 67 67 67 67 67 68 69 69 70 71 71 71 71 71 72 73 74 74 74 75 75 76 73 62 57 58 58 65 73 72 73 73 74 75 76 77 77 78 78
65 66 65 65 65 66 67 67 68 68 69 69 69 70 71 71 72 72 73 74 75 75 75 75 76 74 63 58 57 56 63 72 72 73 72 73 74 75 76 76 76 77
65 65 65 65 65 65 66 67 68 68 67 68 68 69 70 70 71 72 72 72 74 75 75 75 75 76 72 60 56 55 57 67 71 71 72 73 73 74 74 75 75 75

ECMWFNIL_sfc_temp_105.txt.gz
Temp
84 84 85 85 85 86 85 85 86 86 85 86 86 86 86 86 87 87 87 87 87 87 86 86 86 86 88 87 86 86 86 86 87 87 86 87 87 88 88 87 87 88
84 84 84 85 84 84 85 86 85 85 85 85 86 87 86 87 87 87 87 87 87 87 87 87 87 87 87 87 86 86 85 85 86 89 86 86 86 87 88 88 88 88
84 84 85 85 86 86 88 87 86 86 87 87 87 86 88 88 87 86 87 87 87 89 87 87 87 86 87 86 85 86 87 85 86 89 86 86 87 87 87 89 90 89
83 84 86 88 88 87 87 86 85 85 87 86 87 88 88 90 88 87 86 86 87 87 88 88 87 88 87 87 85 86 86 85 87 86 86 86 86 88 88 88 88 89
84 84 86 87 88 87 87 86 87 87 87 87 89 87 86 86 86 88 87 87 86 87 87 86 87 87 86 86 86 86 86 87 86 85 85 85 86 86 88 87 86 87
84 83 84 86 86 86 87 87 87 88 88 89 88 89 88 87 87 88 88 88 89 89 89 89 88 88 88 87 86 86 87 88 88 85 85 85 87 88 89 87 86 86
85 84 84 86 87 87 87 87 87 87 89 90 89 88 88 88 87 87 87 88 89 88 89 88 86 87 87 87 85 85 86 86 86 85 84 86 85 86 88 87 85 85
86 86 86 85 87 88 87 88 88 87 88 88 88 88 88 89 88 89 88 88 89 88 87 88 87 86 88 88 86 85 86 89 87 85 84 84 85 84 85 87 86 85
87 87 86 86 87 88 89 90 89 89 88 88 89 90 89 89 89 90 87 87 88 87 86 87 86 87 88 87 86 86 86 88 89 87 85 85 85 85 86 86 86 85
85 86 87 88 88 88 89 90 91 90 89 89 90 91 90 88 89 89 88 86 87 86 86 86 86 87 88 88 86 86 86 85 86 86 87 87 86 87 87 86 86 85
86 87 86 87 88 89 89 90 90 91 90 89 90 90 91 90 88 88 86 86 88 87 87 86 87 87 87 88 88 88 87 88 87 86 87 86 87 86 86 86 86 86
83 84 84 86 88 89 89 90 90 90 90 90 90 89 89 90 89 89 88 86 87 87 88 87 87 87 87 87 89 89 88 88 88 87 87 87 87 88 87 87 87 87
82 81 82 86 86 88 89 88 89 89 90 90 90 89 89 90 91 89 88 88 87 88 88 87 87 88 86 86 87 87 87 87 88 88 87 88 88 88 90 89 89 89
81 82 84 84 84 84 85 87 88 88 88 88 88 88 89 90 91 90 90 90 89 89 88 88 87 88 87 86 87 88 88 88 87 87 88 88 89 89 90 90 90 90
75 78 80 81 81 81 82 84 85 86 85 86 86 87 90 90 91 91 90 89 89 88 88 89 90 89 90 88 87 87 87 88 88 88 88 87 88 89 90 89 90 91
73 74 75 77 78 79 80 80 82 83 85 84 85 86 86 86 87 88 89 89 88 88 88 90 89 90 85 78 79 87 88 89 89 87 87 87 86 86 89 90 91 91
73 72 74 74 77 77 76 77 79 80 80 81 82 83 83 82 84 86 87 89 89 89 89 90 91 91 79 71 69 71 83 87 87 86 86 86 87 85 85 88 90 90
73 73 73 74 76 76 74 75 76 77 78 79 80 81 80 83 84 84 85 87 88 88 89 90 91 83 72 69 68 67 72 84 88 88 89 88 87 87 87 88 88 90
75 74 73 73 74 72 70 71 73 75 77 79 79 80 80 79 80 82 83 85 86 85 87 88 90 80 69 67 66 66 65 74 87 88 89 89 88 87 87 86 86 87
74 74 73 72 72 72 70 70 72 74 76 78 79 79 78 78 81 81 82 82 83 84 84 87 88 81 70 66 65 64 64 69 85 87 88 88 87 88 89 88 86 85
70 70 71 72 73 73 72 71 72 74 75 76 76 77 79 78 80 80 81 83 85 85 85 87 90 75 69 66 63 62 63 69 83 85 86 87 87 87 86 87 87 87
71 71 70 70 70 71 71 71 72 73 74 74 74 75 77 78 78 80 81 82 83 85 85 85 88 68 66 64 62 61 63 77 82 82 83 85 86 86 86 86 86 86
68 68 69 70 70 69 68 68 69 70 72 73 73 74 74 76 78 79 79 80 81 82 83 83 87 70 62 61 63 60 69 82 82 83 83 83 85 85 85 86 86 86
68 68 68 68 68 68 69 69 69 69 69 71 72 73 73 75 76 76 77 78 78 81 83 82 85 74 63 61 60 60 71 81 82 82 82 82 83 84 84 84 84 81
69 69 68 69 69 68 68 69 69 70 70 70 71 71 71 74 75 76 76 76 76 77 76 79 82 75 62 59 57 59 69 80 80 81 80 81 83 83 84 84 83 82
69 68 68 69 69 70 69 68 69 70 70 70 70 71 71 71 72 73 75 75 77 77 76 76 75 74 65 55 54 56 60 75 79 80 80 80 81 81 81 83 83 83

ECMWFNIL_sfc_temp_108.txt.gz
Temp
89 89 90 90 90 91 90 90 92 91 90 92 92 91 91 91 91 91 92 91 90 91 90 89 89 89 91 90 88 89 89 89 91 91 90 91 92 93 94 92 91 92
88 89 89 91 90 90 89 91 90 91 89 89 91 91 91 91 92 92 91 91 91 91 90 90 90 89 89 91 89 89 89 89 89 94 90 89 91 93 93 92 92 92
89 89 90 90 92 91 94 92 90 90 92 93 92 91 93 93 93 91 91 91 91 93 90 90 90 89 90 89 88 89 90 88 88 92 90 89 92 91 92 95 95 93
89 89 91 92 93 93 93 92 91 90 92 92 92 94 93 96 93 92 91 90 90 90 92 91 91 92 90 90 88 89 89 88 90 89 89 90 90 92 92 93 94 94
90 90 91 92 93 92 93 92 93 93 93 92 94 92 91 90 91 93 92 91 89 91 91 90 90 91 89 89 89 89 90 90 90 89 88 88 89 90 92 92 91 91
90 89 89 90 91 91 93 93 92 94 93 94 92 94 93 92 92 93 93 93 94 93 94 93 92 93 93 90 89 90 91 91 91 88 88 88 90 92 94 92 90 89
92 91 91 92 92 93 92 92 92 92 94 95 94 93 94 93 92 92 92 93 94 92 94 92 90 91 92 91 89 88 89 89 89 88 88 90 89 89 92 91 89 89
93 94 92 92 93 93 93 93 94 92 93 93 94 93 94 94 93 94 94 93 94 93 92 93 90 89 93 93 90 89 90 94 92 88 88 88 89 88 89 91 90 88
93 94 93 93 93 94 95 96 96 95 94 93 94 95 94 94 95 95 92 92 92 92 90 92 90 91 92 92 91 89 89 92 94 91 89 90 89 89 90 91 90 89
92 92 95 94 94 94 94 96 97 97 95 95 95 97 96 94 95 94 93 90 91 90 90 91 90 92 92 93 91 91 90 89 90 90 91 91 91 91 92 91 91 89
93 94 93 93 94 96 96 96 97 98 96 95 96 96 97 96 93 94 92 91 93 92 91 90 91 91 91 93 93 93 92 92 91 90 90 90 91 90 90 90 90 91
90 92 92 93 94 95 96 96 96 97 97 96 96 95 95 96 95 95 94 91 91 92 92 91 91 91 90 91 94 94 93 93 92 92 92 91 92 92 92 92 92 91
89 89 90 93 92 93 95 95 96 97 96 96 96 95 95 96 97 94 94 94 92 93 93 92 91 92 90 90 91 92 92 92 93 93 92 92 93 93 95 95 94 94
89 90 91 90 90 90 91 94 95 95 94 94 95 94 95 95 96 96 96 95 94 94 93 93 92 92 91 90 91 92 93 92 92 92 93 94 94 94 95 96 95 96
84 86 87 88 88 88 87 89 91 92 92 92 92 93 96 96 96 97 96 95 95 94 93 95 96 95 95 92 90 90 92 93 93 93 93 92 93 95 95 94 95 97
78 80 83 85 85 85 85 86 89 90 93 92 91 91 91 91 92 94 96 96 95 94 94 96 96 97 91 84 86 91 92 95 94 92 92 92 91 91 94 95 96 97
76 76 77 78 80 82 83 83 84 87 88 88 89 89 88 88 90 92 94 95 95 95 95 96 97 98 79 74 75 77 88 91 91 90 91 91 91 90 90 92 95 96
77 77 78 78 78 78 80 81 81 83 84 85 87 89 87 89 89 89 90 93 95 96 96 97 97 83 71 71 72 71 77 89 93 93 94 93 93 92 92 93 93 95
79 79 79 79 80 80 79 79 78 80 82 84 85 88 89 86 86 88 88 89 91 91 93 95 98 73 71 69 70 68 68 79 93 93 93 94 93 92 92 91 92 92
80 80 80 80 80 79 78 78 77 78 80 82 85 85 84 86 88 87 88 86 87 88 88 92 95 76 69 67 68 65 66 72 91 93 93 93 92 93 94 93 92 91
76 78 78 79 79 78 77 76 76 77 78 81 83 83 83 83 86 87 87 88 88 89 89 90 96 70 67 66 65 64 65 71 88 92 93 92 92 92 91 92 92 92
76 76 76 78 78 77 75 75 74 75 75 76 78 81 83 84 84 87 88 88 89 89 90 89 86 63 65 64 64 64 64 82 87 87 89 91 91 92 92 91 91 91
73 73 73 74 74 72 72 73 73 73 73 74 75 76 78 80 83 86 86 88 89 88 89 89 84 66 60 61 61 61 70 86 87 88 89 89 90 91 91 91 91 91
75 75 73 73 72 72 73 73 72 71 72 74 75 75 74 76 79 80 83 85 86 87 88 87 81 70 60 59 60 60 74 86 87 87 87 87 88 89 90 89 90 87
78 77 76 75 73 71 71 70 71 70 71 72 72 72 73 74 75 76 78 79 82 84 79 79 82 73 58 59 59 61 73 85 86 87 86 87 89 88 90 90 88 88
77 77 76 76 75 73 72 70 71 71 71 71 71 71 71 71 72 73 76 77 80 80 81 80 76 75 65 55 57 60 62 77 85 84 84 85 87 87 87 88 88 87

ECMWFNIL_sfc_temp_111.txt.gz
Temp
90 90 91 90 91 92 91 91 92 92 90 92 89 91 91 91 92 93 93 92 91 91 90 89 90 90 92 91 90 90 88 89 88 87 91 90 89 93 95 94 94 94
90 90 91 92 91 91 91 92 92 91 88 90 92 82 91 91 93 93 92 92 91 92 90 91 91 90 90 91 89 90 89 90 89 91 87 89 91 93 94 94 94 94
90 90 91 92 93 92 95 93 92 91 91 92 93 91 92 94 92 92 92 92 92 94 91 91 91 90 91 90 88 90 90 88 88 89 85 85 87 92 92 96 96 95
90 91 92 94 95 88 93 92 92 91 92 91 93 95 94 92 91 93 91 91 91 91 92 92 91 91 91 90 89 89 89 88 90 86 84 85 87 91 93 94 95 96
92 91 92 93 94 94 93 94 93 91 93 92 92 93 91 92 91 93 92 92 90 91 91 91 91 92 90 90 89 89 89 88 90 87 86 86 88 91 93 93 92 92
92 91 91 92 93 93 95 94 94 91 91 90 87 86 93 93 93 93 93 93 94 94 93 93 93 94 93 91 90 89 91 92 91 88 89 88 89 92 96 94 91 90
94 92 93 94 95 94 94 93 94 94 93 90 90 89 93 94 93 92 93 92 94 93 94 92 91 90 92 91 89 89 89 90 88 88 87 89 89 90 93 92 90 90
94 95 94 94 95 95 94 95 95 94 93 90 91 90 90 88 90 95 93 93 92 91 92 93 91 90 94 93 91 89 90 92 91 86 86 88 90 89 90 92 91 89
96 95 95 94 95 95 96 97 96 96 95 92 90 90 90 89 88 88 90 92 91 91 90 92 91 92 93 93 91 90 90 92 92 90 89 89 90 89 90 91 91 90
94 95 96 96 96 96 96 97 97 97 94 96 96 95 91 93 91 87 86 90 91 87 89 91 91 92 92 92 92 91 90 90 91 92 92 91 91 91 92 91 91 90
96 96 95 95 96 98 97 97 97 98 95 91 94 94 93 91 90 88 87 91 93 92 91 91 91 92 91 91 92 93 92 92 91 91 91 91 91 91 91 91 91 91
93 94 95 95 96 97 98 99 98 98 96 93 92 90 94 89 90 93 92 91 92 91 92 91 91 92 91 92 94 94 92 93 92 91 91 92 92 93 92 93 92 92
92 91 93 95 95 97 98 98 98 99 97 91 90 91 95 96 94 92 93 94 93 91 93 90 92 93 91 91 92 93 93 93 93 92 92 89 92 94 95 94 95 94
92 93 94 92 93 92 94 97 98 98 97 97 96 95 96 96 96 92 93 92 92 93 94 93 92 93 92 91 92 93 93 93 92 93 94 94 94 92 93 96 94 95
88 90 91 91 91 90 90 92 95 96 96 96 95 96 98 96 96 97 94 96 92 91 93 95 93 93 95 93 92 92 92 93 94 93 93 93 92 95 95 93 96 98
86 86 88 89 88 87 88 89 92 94 96 95 95 95 94 93 93 93 94 91 93 93 92 95 97 96 91 87 86 91 92 94 91 90 92 92 91 91 95 96 97 98
83 82 82 81 82 84 87 87 89 91 91 91 92 93 92 91 92 93 93 92 91 92 93 94 97 99 82 76 79 83 92 92 91 90 89 87 91 91 90 93 95 97
81 80 79 79 80 81 82 83 85 86 86 88 90 92 90 91 90 89 90 92 93 91 90 91 96 87 72 74 76 77 84 92 94 93 94 93 93 92 92 93 94 96
79 79 79 79 80 81 83 83 83 84 84 85 87 88 89 88 87 89 89 91 92 91 93 94 97 75 71 73 74 73 74 85 94 94 95 95 94 93 92 91 92 93
77 77 77 78 79 80 80 81 82 83 83 84 86 82 75 75 80 86 89 88 89 91 90 93 95 72 70 69 71 69 70 77 92 93 94 94 93 94 95 93 92 91
76 73 73 74 75 75 74 74 74 79 83 83 80 77 76 75 74 78 85 90 91 91 91 92 96 68 67 67 67 67 66 76 90 92 92 93 93 94 92 93 93 93
74 75 74 74 73 73 73 73 74 78 80 79 78 77 77 77 76 73 71 79 87 91 90 91 79 61 65 65 64 66 67 85 88 87 88 90 92 93 93 92 93 92
75 75 72 72 72 73 72 71 73 78 78 78 75 74 74 74 75 75 75 74 74 79 87 83 76 64 60 61 62 62 73 87 87 88 88 89 90 91 92 93 93 93
76 76 75 74 75 73 74 75 75 75 77 78 75 74 73 73 75 74 75 74 74 74 74 76 75 65 58 58 60 60 69 83 87 87 87 87 89 90 92 92 93 93
77 77 76 75 74 75 76 76 77 78 77 78 77 75 75 76 75 75 76 75 74 74 74 73 73 68 58 57 57 60 70 82 83 83 81 77 75 75 76 78 79 78
79 77 77 77 76 75 75 75 76 76 77 76 75 73 72 71 73 74 74 73 72 72 72 72 70 69 64 55 56 59 60 75 82 80 77 78 77 75 74 77 74 75

ECMWFNIL_sfc_temp_114.txt.gz
Temp
87 88 87 87 86 86 86 87 88 87 85 87 87 88 87 86 87 88 88 88 87 87 86 86 87 87 88 86 86 85 85 84 85 86 87 87 87 88 90 90 89 87
87 87 87 88 86 87 86 88 87 86 85 86 87 86 88 88 87 87 87 87 88 88 86 88 87 87 87 87 86 87 85 85 85 91 86 87 87 88 88 89 90 88
88 87 89 89 90 90 90 89 88 89 88 89 88 86 89 90 90 88 88 87 88 90 87 87 87 87 88 86 86 87 86 85 86 89 85 85 86 86 87 90 90 90
87 88 90 91 91 91 91 89 89 88 89 88 87 89 90 91 89 90 88 88 88 88 88 88 88 89 88 87 85 86 87 85 87 87 85 85 85 86 87 87 89 89
89 89 90 90 91 90 90 90 91 90 90 88 90 88 86 84 86 89 88 88 87 89 88 88 88 88 87 86 86 85 87 86 87 86 84 84 85 86 88 88 87 88
89 88 88 89 89 88 90 89 90 91 91 90 88 90 89 87 87 88 88 89 90 90 90 90 89 89 89 87 86 86 87 88 88 85 85 84 86 88 90 89 87 87
90 90 90 91 93 90 89 89 89 89 91 92 90 89 90 89 87 88 88 89 90 88 90 88 86 87 87 87 85 85 86 86 87 85 84 85 85 86 89 88 86 86
91 91 91 91 92 92 91 91 90 90 90 90 91 90 90 90 89 91 89 89 89 89 89 89 87 86 90 88 86 85 86 90 88 85 85 85 85 85 86 89 88 86
92 91 91 92 92 93 93 94 94 92 91 90 91 91 91 90 91 91 89 88 88 88 88 88 87 88 89 88 86 86 86 88 90 86 85 85 86 85 87 87 87 86
91 92 93 93 93 93 93 94 95 94 93 92 92 93 92 90 91 90 88 86 87 87 87 87 88 88 89 89 88 87 87 86 87 87 87 87 87 88 88 87 87 86
93 94 93 93 93 94 94 95 95 96 93 92 91 92 92 91 89 90 87 86 88 88 87 87 88 88 88 90 90 89 88 89 87 85 85 85 86 87 89 87 87 88
91 93 93 94 94 95 95 96 96 96 95 93 92 90 89 90 90 90 89 87 87 88 88 88 87 87 87 88 90 91 89 89 89 87 87 87 88 89 89 89 89 88
90 90 92 94 93 94 96 95 96 96 96 95 92 91 90 90 90 89 89 89 88 89 89 87 87 89 86 87 89 88 88 88 89 88 88 88 89 89 91 90 91 90
89 90 92 90 90 89 91 95 96 96 95 94 92 91 91 91 91 91 91 90 89 90 89 89 88 89 87 87 88 89 89 88 87 88 87 87 88 89 90 90 90 91
85 88 88 88 89 89 89 90 92 93 93 92 91 92 93 92 92 91 90 90 90 88 89 90 91 89 89 88 87 88 89 89 88 88 87 85 85 88 90 90 91 92
86 86 84 84 86 87 88 88 90 90 93 93 91 91 89 89 88 89 91 91 89 89 89 91 90 91 88 84 84 88 88 88 89 86 86 86 86 86 89 90 91 92
83 83 83 83 81 81 82 83 83 84 83 80 81 84 85 86 86 84 87 88 90 89 89 89 90 92 83 75 76 81 89 88 87 86 86 86 87 85 85 87 90 91
82 82 82 79 77 79 81 82 82 82 82 82 83 84 80 82 84 84 84 83 86 88 90 90 90 86 76 73 74 76 82 88 90 89 90 88 87 87 87 87 88 91
81 81 81 76 74 75 76 78 80 81 82 82 83 81 78 79 80 83 86 85 84 82 84 89 90 76 71 71 70 72 75 84 91 90 91 91 89 87 86 86 87 88
79 79 80 79 76 76 75 76 77 79 80 81 79 78 76 77 80 80 81 80 82 83 84 84 77 66 62 65 69 70 73 79 89 91 90 89 87 89 91 89 88 85
76 77 77 77 77 78 78 78 78 78 79 78 77 77 78 77 77 79 79 78 80 80 80 79 76 64 63 63 65 68 69 78 88 90 89 88 88 88 87 89 87 90
74 74 74 74 75 75 76 76 76 76 75 75 76 77 78 78 78 78 77 77 77 77 77 78 74 61 62 61 61 62 68 83 85 84 85 86 86 86 87 85 84 80
74 72 71 72 72 73 74 74 73 74 74 74 73 74 74 76 78 78 77 76 76 76 74 73 73 62 60 59 59 62 72 82 84 85 85 85 86 86 83 80 81 81
74 73 72 72 72 72 72 72 72 72 72 74 74 74 73 74 75 74 75 75 76 75 75 73 72 62 57 58 58 60 70 79 82 82 83 82 82 81 81 79 80 82
75 74 74 74 74 74 75 74 73 73 73 73 73 73 73 73 74 73 73 73 74 74 77 73 69 65 57 57 58 59 69 79 80 80 80 80 79 79 79 78 77 78
74 75 75 74 74 75 76 76 76 77 76 76 74 74 73 72 72 72 73 72 73 73 73 70 68 66 63 55 56 59 61 73 78 76 77 78 80 77 77 78 77 77

ECMWFNIL_sfc_temp_117.txt.gz
Temp
80 81 81 80 80 81 80 81 81 81 80 80 80 80 80 81 83 82 83 82 82 82 81 81 81 80 82 80 79 80 80 79 80 80 80 80 80 81 85 83 82 81
80 81 82 82 81 82 81 82 81 81 80 80 81 81 82 82 83 82 82 82 83 82 81 82 81 80 80 81 80 79 79 79 78 84 80 81 80 81 81 82 83 82
81 81 81 81 82 82 84 84 82 82 81 82 82 82 83 84 83 81 82 82 83 83 82 81 81 81 81 80 80 80 80 78 78 81 79 79 80 79 79 82 82 83
81 82 83 84 84 83 84 83 82 82 83 82 81 84 85 87 83 83 81 84 82 82 82 82 83 83 82 81 80 80 79 79 80 79 79 79 79 80 79 80 81 83
83 82 83 85 85 84 84 83 84 83 84 82 84 83 82 80 83 83 82 82 82 82 82 82 82 82 82 80 80 79 80 79 80 79 78 78 78 79 81 81 80 81
82 82 81 83 83 84 84 84 84 84 84 83 83 83 83 81 82 82 82 83 83 84 84 83 83 83 83 81 80 80 81 81 81 79 79 78 79 80 84 83 80 80
83 83 83 84 84 85 84 84 83 84 85 84 83 83 83 83 82 82 82 83 84 83 84 82 82 82 82 81 80 79 80 79 80 79 79 79 79 79 82 82 80 81
85 85 84 84 85 85 84 84 84 83 84 84 84 83 84 83 83 85 83 83 84 83 83 83 82 80 83 82 81 80 80 84 83 78 78 78 78 78 79 82 81 79
86 85 85 85 86 85 86 86 86 85 85 84 85 85 85 84 84 85 83 83 83 82 81 82 82 83 82 82 81 81 81 83 84 81 80 80 79 78 80 80 80 80
85 86 87 87 87 86 86 87 87 87 86 85 86 85 85 84 85 84 83 82 82 82 81 82 81 82 82 83 81 82 81 80 80 80 81 81 80 80 81 81 81 79
86 87 86 87 87 88 88 89 89 88 87 86 87 86 86 85 83 83 81 81 83 82 81 81 81 82 82 83 83 83 83 83 82 80 80 80 81 80 82 80 80 81
86 86 86 87 88 88 89 89 89 89 87 87 87 86 85 86 85 84 83 81 82 82 82 81 81 81 82 83 84 84 83 84 83 82 81 81 81 82 82 83 83 81
84 84 86 87 87 88 89 89 89 90 89 88 87 87 86 86 85 85 83 83 82 83 83 82 82 83 81 82 83 83 82 82 82 81 82 82 82 83 84 84 83 83
82 82 84 83 85 84 85 87 89 89 89 88 88 87 86 86 86 86 84 84 83 83 83 83 82 83 81 81 82 83 83 81 81 81 82 82 82 82 82 83 83 84
80 81 79 80 82 81 81 82 84 85 85 85 87 86 87 87 87 87 85 84 84 83 84 85 84 84 84 83 82 82 82 82 82 82 82 80 80 81 82 83 84 86
74 77 78 77 77 77 78 79 80 81 81 81 81 84 84 84 85 85 85 84 84 83 84 86 83 79 77 80 83 82 81 83 83 81 81 80 80 79 81 83 85 86
71 71 74 74 74 75 76 77 78 79 78 78 78 78 77 78 78 77 79 80 82 82 80 78 76 76 75 68 71 78 84 80 80 79 80 81 80 78 78 81 82 83
73 74 73 73 73 73 73 73 75 76 76 77 78 77 76 79 79 77 76 79 78 76 77 79 77 76 70 68 68 69 75 80 81 82 83 81 81 81 81 81 81 84
73 73 72 73 73 73 73 72 72 73 75 76 76 76 75 76 77 78 77 78 76 76 76 75 78 74 67 68 67 68 68 76 82 84 83 82 81 80 80 80 80 80
74 73 73 73 74 73 73 72 72 72 73 76 76 75 74 74 77 76 75 75 77 77 76 77 77 67 63 64 66 67 68 72 78 82 82 82 80 81 82 81 79 78
74 74 74 74 73 73 73 73 73 73 75 74 74 74 74 74 74 75 76 77 78 77 77 76 77 65 62 64 63 66 69 75 77 81 82 81 81 80 78 78 76 77
72 72 71 71 71 72 72 72 72 72 72 73 74 74 74 75 76 76 75 75 75 76 76 74 70 59 60 61 61 63 66 75 76 78 79 79 80 78 76 75 75 75
71 71 70 70 70 71 72 72 70 70 71 72 71 73 73 74 75 75 74 74 74 75 74 71 70 61 58 59 60 61 69 78 78 79 78 79 78 76 75 76 76 75
72 71 70 70 69 70 70 71 70 70 70 73 71 71 71 72 73 72 73 73 74 74 73 71 67 61 57 57 58 60 70 77 77 78 78 77 77 76 75 74 77 83
71 71 71 71 70 70 71 70 70 70 71 71 71 71 71 71 72 72 71 72 73 73 77 70 66 64 57 58 58 59 69 75 76 76 76 75 75 75 75 74 74 76
70 72 72 71 70 71 71 71 72 72 71 71 71 70 71 70 70 70 70 71 72 73 71 68 66 65 63 56 57 59 63 74 75 73 74 74 75 74 74 74 73 71

ECMWFNIL_sfc_temp_120.txt.gz
Temp
77 78 78 78 77 78 77 77 77 78 77 77 77 78 77 79 79 80 80 79 79 79 78 78 78 78 79 78 77 77 77 76 78 76 77 77 77 78 81 79 78 77
77 78 79 79 77 79 77 79 78 78 77 77 78 78 78 79 80 80 79 79 80 79 79 79 78 78 78 78 77 77 76 77 76 81 78 78 77 77 78 78 78 78
78 78 79 78 79 79 80 79 79 79 79 79 79 78 80 80 80 78 79 80 80 80 79 79 79 78 78 78 77 78 78 75 76 77 77 76 76 77 76 77 77 79
78 79 80 80 80 80 81 79 79 79 80 79 79 81 81 83 81 80 79 81 80 79 80 79 79 79 78 78 77 77 77 76 77 76 77 77 76 77 77 76 77 79
79 79 80 81 81 80 80 80 80 80 80 80 80 80 80 80 79 80 79 79 79 79 79 79 79 79 79 78 77 77 77 77 77 76 75 75 76 76 78 77 76 77
79 79 79 81 80 80 80 80 81 81 81 81 80 80 80 80 80 80 80 80 80 80 80 80 79 80 80 79 77 78 78 78 77 76 76 76 77 76 80 79 77 76
80 79 80 81 81 81 81 81 81 81 81 82 80 80 80 80 80 80 80 81 81 80 81 80 79 79 79 79 78 77 77 77 77 77 77 77 77 76 78 78 77 76
81 81 81 80 81 82 81 82 81 81 82 81 81 81 80 80 80 81 81 81 81 80 80 80 79 79 80 79 78 77 77 80 79 76 76 77 76 76 76 78 77 76
82 82 82 81 81 82 83 83 83 82 82 82 82 82 81 81 81 81 80 80 80 80 79 80 79 80 80 79 79 78 78 79 80 78 77 77 76 76 77 77 76 76
82 82 83 83 82 82 83 84 84 83 82 82 83 83 81 81 81 81 80 79 80 79 78 79 79 80 80 80 79 79 78 78 78 78 78 78 78 78 78 77 77 76
82 83 83 83 83 83 83 84 85 84 83 83 83 83 83 82 80 81 80 79 80 80 79 79 79 79 79 80 80 80 79 80 79 78 78 78 78 78 80 78 77 78
82 82 82 83 83 84 84 84 85 85 84 83 83 83 82 82 82 81 81 79 80 80 80 79 79 79 79 80 80 80 79 80 80 79 79 78 78 79 79 79 79 78
81 81 82 83 83 84 85 84 85 85 85 84 84 84 83 83 83 81 81 81 80 81 80 79 79 79 78 79 80 80 80 80 80 79 79 79 79 79 80 80 80 80
73 75 78 80 83 82 83 85 85 85 85 85 84 84 84 84 84 83 81 81 81 81 81 80 79 79 78 78 79 80 80 79 79 80 79 79 79 79 80 80 80 80
74 75 76 75 78 80 81 82 83 83 84 84 84 84 85 85 85 85 82 81 81 80 81 81 81 80 80 79 78 78 80 79 79 79 79 78 78 79 79 79 80 81
74 74 74 74 74 76 76 77 78 79 82 83 83 84 84 83 83 83 83 82 80 80 80 82 80 79 80 80 80 79 77 80 80 78 78 78 78 78 79 79 81 81
73 73 73 73 72 73 74 75 76 77 76 77 79 81 81 80 80 80 81 81 81 81 80 80 79 79 78 72 72 74 78 77 78 78 78 78 78 77 77 79 80 80
72 72 72 71 71 72 72 72 74 75 75 75 76 76 76 78 79 78 77 79 79 78 78 77 77 79 70 69 70 70 75 78 78 79 79 78 78 78 78 79 79 80
71 71 71 71 71 71 72 71 71 72 73 74 74 74 74 75 76 76 75 76 76 76 76 76 76 72 67 69 68 68 68 76 78 79 79 79 78 78 78 77 77 77
71 71 71 71 72 72 71 71 72 72 71 72 73 72 72 73 74 74 74 74 75 75 75 75 76 71 66 67 67 67 67 71 77 79 79 79 78 79 79 77 76 75
72 72 71 72 72 72 72 71 71 70 71 72 73 71 71 71 71 72 73 74 74 74 74 75 76 64 63 64 64 65 67 73 75 78 79 79 78 77 77 76 74 75
71 71 71 71 70 70 71 71 71 71 71 72 72 71 72 72 72 72 72 72 73 73 73 73 69 60 62 62 63 63 68 74 74 75 77 77 76 75 75 73 73 74
70 69 70 69 69 70 69 70 69 70 70 70 69 70 70 71 72 72 72 72 73 73 72 71 71 62 59 59 60 61 66 73 75 75 75 77 75 75 75 75 74 74
70 70 69 69 68 69 69 69 69 69 69 71 70 70 70 71 72 71 72 73 73 73 73 71 69 63 58 58 57 59 67 75 75 75 75 76 74 74 75 75 77 79
70 69 69 69 69 69 69 69 69 69 70 71 70 70 70 71 72 71 71 72 73 73 76 73 68 66 59 56 58 58 65 75 75 75 75 73 73 72 73 74 75 78
70 71 71 71 70 70 69 69 71 71 70 70 69 69 70 70 72 71 70 71 72 73 73 70 66 66 65 55 56 60 63 71 73 74 73 73 73 72 71 72 71 71

ECMWFNIL_sfc_temp_123.txt.gz
Temp
76 77 77 76 76 76 76 76 76 77 76 76 75 76 76 77 77 78 78 78 77 77 77 77 77 77 78 76 76 75 75 74 75 74 74 75 74 76 78 76 76 75
75 77 78 77 76 77 76 77 77 77 76 76 77 76 76 77 77 78 78 77 77 77 77 77 77 77 77 76 75 75 75 75 75 78 76 76 75 74 76 76 75 75
75 76 77 76 77 76 78 77 77 77 77 78 78 77 77 78 78 77 78 78 77 78 77 77 77 77 77 76 76 76 77 74 75 75 75 75 74 75 74 75 74 76
75 76 77 78 78 77 78 77 76 76 77 77 77 78 79 80 79 78 77 79 77 78 78 77 77 77 77 77 76 75 76 75 76 74 75 74 75 74 75 74 75 75
76 76 77 78 78 78 78 77 78 77 77 78 78 77 78 77 77 78 77 77 77 78 77 77 77 77 77 76 76 75 76 75 75 74 74 74 74 74 76 75 74 74
76 76 77 77 77 77 77 78 78 78 78 78 78 78 78 78 78 78 78 78 78 78 78 78 77 78 77 77 76 76 76 76 76 74 74 74 75 74 77 76 74 74
77 76 77 78 78 78 78 78 78 79 79 79 78 78 78 78 78 78 78 78 78 78 78 78 77 77 77 77 76 76 75 76 75 74 75 75 74 75 75 75 74 74
78 78 78 78 78 78 78 78 78 78 78 78 78 78 78 79 78 79 78 78 79 78 78 78 77 77 78 77 76 76 76 77 76 75 74 74 74 74 75 76 75 73
79 78 78 78 78 79 79 80 79 79 79 79 79 79 79 79 79 79 78 78 78 78 77 78 77 78 78 77 77 76 76 77 78 76 75 75 75 75 75 75 74 74
78 79 79 79 79 79 79 80 81 80 80 79 80 80 79 79 79 79 78 77 78 77 77 77 77 78 78 78 77 77 77 76 76 76 76 76 76 76 76 75 75 74
79 80 79 79 79 80 80 81 81 81 80 80 80 80 80 79 78 78 77 77 78 78 77 77 78 78 77 78 78 78 78 78 77 76 76 76 76 76 78 76 75 75
79 79 79 80 80 80 80 81 82 81 81 81 81 80 80 80 79 79 79 77 77 78 78 78 77 77 77 78 78 78 78 78 78 77 77 77 77 77 77 77 77 76
78 79 79 80 80 81 81 81 81 82 82 81 81 81 81 80 80 79 79 79 78 78 78 78 78 77 77 77 78 78 78 77 78 77 77 77 77 77 78 77 77 77
77 78 79 79 80 79 80 81 82 82 82 82 81 81 81 81 81 80 80 79 79 79 79 79 78 78 77 77 77 78 78 77 77 77 77 77 77 77 78 78 78 78
75 75 77 78 79 78 78 79 80 81 81 81 81 81 82 82 82 82 80 79 79 79 79 79 79 78 78 77 77 77 77 77 77 77 77 76 77 77 78 77 78 79
73 74 75 75 76 77 77 78 79 79 81 80 80 81 81 81 80 81 81 80 79 78 78 79 79 79 80 80 80 78 76 78 78 76 76 76 76 76 77 77 78 79
71 71 72 73 75 75 76 76 77 78 77 78 79 80 79 79 80 79 80 80 80 79 78 78 79 79 78 72 73 77 79 76 76 76 76 76 76 76 76 77 78 78
71 71 70 70 71 71 71 70 71 72 74 76 78 79 78 79 79 78 78 79 79 78 78 78 78 79 72 70 71 72 78 77 76 76 77 76 76 76 77 77 77 78
70 70 70 70 70 69 70 71 70 70 70 70 71 73 75 76 76 77 76 77 78 77 77 77 77 74 70 69 69 69 71 78 76 77 76 77 76 76 76 76 76 76
70 70 70 70 70 70 69 69 70 69 69 71 71 71 70 71 72 72 72 72 74 75 76 77 76 74 68 67 68 68 69 73 76 77 76 77 77 77 78 77 76 76
70 70 70 70 70 71 70 70 69 69 69 70 69 69 70 69 70 70 71 72 72 72 72 74 77 70 66 66 65 66 67 72 73 76 76 76 76 77 77 78 77 77
70 69 70 70 70 70 70 69 69 68 69 69 70 68 69 70 70 71 70 71 71 71 72 71 71 61 62 63 64 64 67 72 72 72 73 75 76 77 77 77 77 76
69 69 69 69 69 69 69 69 69 68 69 70 69 69 69 69 70 71 71 71 72 72 71 70 71 64 60 60 60 60 64 69 71 73 73 74 76 76 76 75 74 74
69 69 68 69 68 68 68 68 69 70 70 72 70 70 69 70 70 70 71 71 72 72 72 71 70 65 60 59 58 58 64 69 71 72 73 74 75 75 74 74 75 79
69 69 68 68 68 68 68 68 69 69 70 70 70 70 70 70 71 70 70 71 72 72 75 74 70 66 58 57 57 57 62 68 70 71 72 72 73 72 73 73 74 79
68 69 69 68 68 68 68 68 69 70 69 69 69 70 70 70 70 70 70 70 71 72 73 71 68 67 63 55 56 57 60 66 71 72 72 72 72 72 72 72 71 72

ECMWFNIL_sfc_temp_126.txt.gz
Temp
76 77 77 76 76 76 76 76 76 77 76 76 76 76 76 77 78 78 78 78 78 78 78 78 79 79 80 79 79 77 77 76 78 77 77 77 78 79 81 80 80 79
76 77 78 77 76 77 76 77 77 77 76 76 77 77 77 78 78 78 78 78 79 79 78 79 79 79 79 79 78 78 77 77 78 80 78 78 79 78 79 79 79 79
76 77 77 77 77 77 78 78 77 77 78 78 78 77 78 79 79 78 78 79 78 79 78 78 78 79 79 79 78 78 79 78 78 79 78 78 78 78 79 80 79 80
76 77 78 79 78 78 78 77 77 77 78 78 78 79 79 80 79 79 78 79 78 78 79 79 79 79 79 79 78 78 78 78 79 78 78 78 77 77 78 78 79 80
77 77 78 78 79 78 78 78 78 78 78 78 79 79 78 78 78 79 78 78 78 79 79 79 79 79 79 78 78 78 78 78 78 78 78 78 78 77 79 79 78 79
77 77 77 78 78 78 78 78 78 79 78 79 79 79 79 79 79 79 79 79 80 80 80 80 79 80 80 79 78 78 79 79 79 78 77 77 79 79 79 79 79 78
77 77 77 78 78 78 78 78 79 79 79 80 79 79 79 79 79 79 79 79 80 80 80 79 79 79 79 79 78 78 78 78 78 78 77 78 78 78 79 79 78 78
78 78 78 78 79 78 78 79 79 79 79 79 79 79 79 79 79 80 80 79 80 79 79 80 79 79 80 79 78 78 78 79 78 77 77 77 77 77 78 78 78 78
79 78 78 78 78 79 79 80 80 79 80 79 80 80 80 80 80 80 79 79 79 79 79 79 79 79 80 79 78 78 78 79 80 78 78 78 77 77 79 79 78 77
78 79 79 78 79 79 79 80 81 80 80 80 80 81 80 80 80 80 79 78 79 79 79 79 79 79 79 79 79 79 79 78 79 78 79 79 79 79 79 79 79 78
79 79 78 78 79 80 80 81 81 81 80 80 81 80 81 80 79 80 79 78 79 79 79 79 79 79 79 80 80 80 79 80 79 79 79 79 79 79 79 79 78 79
78 79 79 79 79 80 80 81 81 81 81 81 81 81 80 81 80 80 80 79 79 80 80 79 79 79 79 79 80 80 80 80 80 79 79 79 79 79 79 80 80 79
78 78 79 79 79 80 81 81 81 82 82 81 81 81 81 81 81 80 80 80 80 80 80 80 79 80 79 79 80 80 80 80 80 79 80 79 80 80 81 81 81 81
77 78 79 79 79 78 79 81 81 82 81 82 81 81 81 82 82 81 81 81 81 80 80 80 79 79 79 79 79 80 80 80 80 80 80 80 80 80 81 81 81 81
76 76 77 77 78 77 77 78 80 80 80 81 81 81 83 83 83 83 82 81 81 80 80 80 80 80 80 79 79 79 80 80 80 80 80 79 79 80 81 80 81 82
75 76 76 76 76 76 76 77 79 79 81 80 80 81 81 80 81 81 82 81 81 80 80 81 80 80 80 79 79 80 79 80 80 79 79 79 79 79 80 81 81 82
74 75 75 75 75 75 75 75 76 78 78 78 78 79 79 79 80 80 81 82 82 81 80 80 80 80 77 72 72 76 81 79 79 79 79 79 79 79 79 80 81 81
72 72 73 73 72 72 72 72 72 72 72 73 75 76 76 78 79 79 79 81 81 81 81 81 80 79 72 70 71 71 77 80 80 80 80 79 79 79 79 80 81 82
71 72 72 72 71 70 70 71 71 71 71 72 73 74 75 76 76 77 78 79 80 79 80 80 81 75 69 69 69 69 70 78 81 80 80 80 80 79 79 79 79 80
69 69 69 70 70 69 69 70 70 70 70 70 71 71 71 73 75 76 76 75 77 78 78 80 80 76 69 67 67 68 68 73 81 80 80 80 79 80 80 80 79 79
70 69 69 69 69 69 69 70 69 69 70 70 70 69 70 71 72 74 75 76 77 78 77 79 80 73 69 66 65 65 67 73 78 80 80 79 79 79 79 80 80 80
69 69 69 69 69 69 69 69 70 69 69 69 70 69 69 69 70 71 73 73 73 75 76 76 77 64 64 64 65 65 68 74 75 75 76 77 78 78 79 78 79 80
69 69 69 68 69 69 69 70 69 69 69 70 69 69 69 69 70 70 71 72 73 73 73 72 74 63 60 60 61 61 67 72 73 74 74 75 76 77 77 78 78 77
69 69 69 69 68 68 68 69 70 69 69 71 70 69 69 69 70 70 71 72 73 73 73 73 72 65 60 58 59 60 66 71 72 73 73 74 75 77 77 77 77 80
69 68 68 68 68 68 69 68 69 69 69 71 71 71 71 70 70 70 71 71 72 73 75 74 72 67 58 58 57 58 65 69 70 71 72 73 74 74 76 76 75 77
68 69 69 68 67 67 68 68 69 70 69 69 70 70 70 70 71 71 71 71 72 73 74 74 73 70 62 55 56 57 60 67 69 70 71 73 73 74 74 74 74 75